Regional Weather Roundup
Issued by NWS

Home | Current Version | Previous Version | Text Only | Print | Product List | Glossary On
Versions: 1 2 3 4 5 6 7 8 9 10 11 12 13 14 15 16 17 18 19 20 21 22 23 24 25 26 27 28 29 30 31 32 33 34 35 36 37 38 39 40 41 42 43 44 45 46 47 48 49 50
000
ASUS43 KMPX 290101
RWRMN
WEATHER ROUNDUP FOR MINNESOTA
NATIONAL WEATHER SERVICE TWIN CITIES/CHANHASSEN MN
800 PM CDT WED JUN 28 2017


NOTE: "FAIR" INDICATES FEW OR NO CLOUDS BELOW 12,000 FEET WITH NO
SIGNIFICANT WEATHER AND/OR OBSTRUCTIONS TO VISIBILITY. N/A MEANS
CURRENT SKY AND/OR WEATHER CONDITIONS ARE NOT AVAILABLE.

MNZ060>063-068>070-290200-
   Twin Cities Metro

CITY           SKY/WX    TMP DP  RH WIND       PRES   REMARKS
TWIN CITIES    PTCLDY    77  61  57 W14       29.53S
ST PAUL        PTCLDY    77  62  59 W16       29.53R
CRYSTAL        PTCLDY    76  59  55 W15       29.52S
BLAINE         MOCLDY    79  63  57 W9G18     29.53R
LAKEVILLE      CLEAR     75  64  69 W6        29.56R
EDEN PRAIRIE   CLEAR     78  61  55 NW7       29.53R
SOUTH ST PAUL  PTCLDY    77  61  58 W6        29.53S
LAKE ELMO      FAIR      75  64  69 W12       29.54S
$$
MNZ001>005-007-008-013>017-022>024-027-028-290200-
   Northwest Minnesota

CITY           SKY/WX    TMP DP  RH WIND       PRES   REMARKS
BEMIDJI        LGT RAIN  60  60  98 NW10      29.59R
HALLOCK        PTSUNNY   64  63  94 CALM      29.65R
ROSEAU         CLOUDY    61  55  82 N5        29.65R
WARROAD        LGT RAIN  61  55  82 NE8       29.65S
THIEF RVR FALL CLOUDY    61  59  94 NW9       29.64R
CROOKSTON      CLOUDY    63  63 100 N12       29.64R
FOSSTON        DRIZZLE   57  57 100 N13       29.63R
DETROIT LAKES  CLOUDY    63  59  88 NW16      29.63R
MOORHEAD       PTSUNNY   68  61  77 N12       29.63R
PARK RAPIDS    CLOUDY    64  59  83 N9        29.56R
MAHNOMEN       CLOUDY    60  59  96 NW13      29.62R
$$
MNZ006-009>011-018-025>026-290200-
   North Central Minnesota

CITY           SKY/WX    TMP DP  RH WIND       PRES   REMARKS
BAUDETTE       LGT RAIN  61  61 100 N9        29.63R
FLAG ISLAND    RAIN      61  59  94 N9        29.65R
INTL FALLS     LGT RAIN  60  58  92 MISG      29.61R
WASKISH        RAIN      63  61  94 N7        29.61R
BIG FORK       DRIZZLE   61  57  88 CALM      29.57R
LONGVILLE      RAIN      61  59  94 CALM      29.55R
GRAND RAPIDS   CLOUDY    60  59  96 VRB5      29.56R FOG
CRANE LAKE     RAIN      57  57 100 CALM      29.61S
ORR            DRIZZLE   57  55  94 CALM      29.56R
COOK           CLOUDY    57  57 100 E3        29.57R
WALKER         LGT RAIN  59  58  96 N6        29.57R
$$
MNZ012-019>021-037-290200-
   Northeast Minnesota

CITY           SKY/WX    TMP DP  RH WIND       PRES   REMARKS
DULUTH         TSTM      58  58 100 E9        29.51S FOG
ELY            LGT RAIN  57  57 100 E6        29.58S
HIBBING        CLOUDY    59  58  96 NE6       29.54R
EVELETH        CLOUDY    60  57  88 NE7       29.55F
DULUTH HARBOR  RAIN      52  52 100 NE20      29.51S
TWO HARBORS    LGT RAIN  61  55  82 NE9G17    29.51F
SILVER BAY     DRIZZLE   57  57 100 NE8       29.54F
GRAND MARAIS     N/A     53  53 100 NE8       29.59F
G MARAIS ARPRT RAIN      57  54  88 NE8       29.63S
$$
MNZ029>031-032-039>041-046>048-054>057-064-290200-
   West Central Minnesota

CITY           SKY/WX    TMP DP  RH WIND       PRES   REMARKS
FERGUS FALLS   PTSUNNY   68  61  77 NW15G25   29.59R
WHEATON        PTSUNNY   72  61  68 NW12      29.63R
MORRIS         SUNNY     73  61  64 NW16G24   29.60R
ALEXANDRIA     MOSUNNY   68  60  75 NW20G26   29.60R
ELBOW LAKE     FAIR      68  62  80 NW14      29.61R
WADENA         CLOUDY    64  61  88 NW13G20   29.57R
GLENWOOD       SUNNY     68  61  77 NW17G23   29.60R
APPLETON       SUNNY     75  59  57 NW13      29.60R
BENSON         SUNNY     73  61  64 N13G23    29.61R
ORTONVILLE     SUNNY     75  57  53 NW10G21   29.62R
MADISON        SUNNY     79  61  53 N16G22    29.61R
WILLMAR        FAIR      73  63  68 NW21G26   29.60R
$$
MNZ033>034-036-042>043-049>051-058-059-290200-
   Central Minnesota

CITY           SKY/WX    TMP DP  RH WIND       PRES   REMARKS
ST CLOUD       MOCLDY    71  61  70 W17G30    29.53R
SAUK CENTRE    CLOUDY    67  60  79 NW15G21   29.58R
PAYNESVILLE    MOSUNNY   72  61  68 NW16G23   29.58R
AITKIN         DRIZZLE   61  59  94 NW5       29.51R
PINE RIVER     DRIZZLE   63  63 100 MISG      29.58R
BRAINERD       LGT RAIN  64  63  96 N7        29.53R FOG
STAPLES        CLOUDY    64  63  94 W8        29.55R
LONG PRAIRIE   CLOUDY    64  59  82 W14       29.57R
LITTLE FALLS   CLOUDY    64  59  82 W13G22    29.54S
LITCHFIELD     CLEAR     75  64  69 NW13G18   29.56S
BUFFALO        PTCLDY    74  62  66 W12G17    29.54S
MAPLE LAKE     PTCLDY    75  64  67 NW16G24   29.55R
HUTCHINSON     MOCLDY    77  66  68 W13       29.56S
$$
MNZ037-044-045-052-053-290200-
   East Central Minnesota

CITY           SKY/WX    TMP DP  RH WIND       PRES   REMARKS
PRINCETON      MOCLDY    73  63  68 W18G28    29.52R
MORA           MOCLDY    70  61  73 W9G20     29.52R
CAMBRIDGE      CLOUDY    73  61  64 W14G20    29.50R
RUSH CITY      MOCLDY    72  63  73 W8G21     29.51R
MOOSE LAKE     CLOUDY    54  52  94 NE3       29.50R FOG
HINCKLEY       CLOUDY    70  66  88 W6        29.49S
CLOQUET        DRIZZLE   57  55  94 E5        29.51S
MCGREGOR       CLOUDY    59  57  94 CALM      29.51R
$$
MNZ071>073-080-081-089-090-097-098-290200-
   Southwest Minnesota

CITY           SKY/WX    TMP DP  RH WIND       PRES   REMARKS
MONTEVIDEO     SUNNY     77  61  57 N13G21    29.60R
GRANITE FALLS  SUNNY     79  63  57 NW17G25   29.61R
CANBY          SUNNY     78  61  56 N9G18     29.63R
MARSHALL       MOSUNNY   80  61  52 NW17      29.60R
REDWOOD FALLS  CLEAR     79  61  53 NW12      29.57R
OLIVIA         SUNNY     77  63  61 NW18      29.57S
PIPESTONE      SUNNY     82  55  39 N12       29.64S
WINDOM         CLEAR     81  63  54 W9        29.61R
WORTHINGTON    CLEAR     79  64  60 W8        29.63R
JACKSON        CLEAR     79  63  57 W9        29.62R
TRACY          SUNNY     79  64  61 NW9G17    29.61R
SLAYTON        SUNNY     79  62  56 NW13G22   29.62F HAZE
$$
MNZ065>067-074>077-082>085-091>093-290200-
   South Central Minnesota

CITY           SKY/WX    TMP DP  RH WIND       PRES   REMARKS
MANKATO        PTCLDY    78  65  63 NW12      29.58R
NEW ULM        CLEAR     79  63  57 NW9       29.57R
ST JAMES       PTCLDY    77  66  69 NW7       29.60R
FAIRMONT       PTCLDY    79  68  69 SW9       29.59R
GLENCOE        CLEAR     77  67  71 W8        29.55S
FARIBAULT      PTCLDY    75  64  69 W7        29.58R
OWATONNA       DRIZZLE   79  68  69 NW16      29.57R
WASECA         MOCLDY    77  64  65 NW14      29.59R
ALBERT LEA     PTCLDY    79  63  57 SW6       29.57F
$$
MNZ078>079-086>088-094>096-290200-
   Southeast Minnesota

CITY           SKY/WX    TMP DP  RH WIND       PRES   REMARKS
ROCHESTER      MOCLDY    75  72  90 SW10      29.57R
RED WING       CLOUDY    77  64  65 NE5       29.54R
STANTON        MOCLDY    77  65  67 W8        29.55R
DODGE CENTER   LGT RAIN  75  66  73 W7        29.57S
WINONA         RAIN      70  66  88 SE8       29.60R
AUSTIN         MOCLDY    77  70  78 SW9       29.57F
PRESTON        PTCLDY    73  67  81 SW9G17    29.59S
$$
ABBREVIATIONS USED IN REMARKS
   TC - TEMPERATURES IN CELSIUS
  WCI - WIND CHILL INDEX
   HX - HEAT INDEX
  VSB - VISIBILITY
$$




USA.gov is the U.S. government's official web portal to all federal, state and local government web resources and services.